This is the latest recevied weather packets stored in our database for station/object N5GMJ. If no packets are shown the sender has not sent any weather packets the latest 10 day(s).
| Time | Temp. | Humidity | Pressure | Rain* | Wind** | Luminosity | Snow |
|---|---|---|---|---|---|---|---|
| 1776971296 | 23.89° C | 80% | 1009.3 hPa | 0 mm | - | - | - |
| 1776970992 | 24.44° C | 80% | 1009.4 hPa | 0 mm | - | - | - |
| 1776970690 | 24.44° C | 79% | 1009.4 hPa | 0 mm | - | - | - |
| 1776970387 | 24.44° C | 80% | 1009.6 hPa | 0 mm | - | - | - |
| 1776970083 | 24.44° C | 79% | 1009.4 hPa | 0 mm | - | - | - |
| 1776969781 | 24.44° C | 78% | 1009.4 hPa | 0 mm | - | - | - |
| 1776969476 | 24.44° C | 78% | 1009.7 hPa | 0 mm | - | - | - |
| 1776969173 | 25° C | 79% | 1009.5 hPa | 0 mm | - | - | - |
| 1776968869 | 24.44° C | 79% | 1009.8 hPa | 0 mm | - | - | - |
| 1776968563 | 24.44° C | 78% | 1009.7 hPa | 0 mm | - | - | - |
| 1776968259 | 23.89° C | 80% | 1010 hPa | 0 mm | - | - | - |
| 1776967956 | 23.89° C | 81% | 1010 hPa | 0 mm | - | - | - |
| 1776967654 | 23.89° C | 81% | 1010 hPa | 0 mm | - | - | - |
| 1776967348 | 23.33° C | 82% | 1010.1 hPa | 0 mm | - | - | - |
| 1776967047 | 23.89° C | 82% | 1010 hPa | 0 mm | - | - | - |
| 1776966743 | 23.89° C | 82% | 1010 hPa | 0 mm | - | - | - |
| 1776966439 | 23.89° C | 80% | 1010.1 hPa | 0 mm | - | - | - |
| 1776966136 | 23.89° C | 82% | 1010.3 hPa | 0 mm | - | - | - |
| 1776965836 | 23.33° C | 82% | 1010.3 hPa | 0 mm | - | - | - |
| 1776965535 | 23.33° C | 81% | 1010.4 hPa | 0 mm | - | - | - |
| 1776965234 | 23.33° C | 82% | 1010.4 hPa | 0 mm | - | - | - |
| 1776964929 | 23.89° C | 82% | 1010.3 hPa | 0 mm | - | - | - |
| 1776964628 | 23.89° C | 82% | 1010.4 hPa | 0 mm | - | - | - |
| 1776964322 | 23.33° C | 82% | 1010.4 hPa | 0 mm | - | - | - |
| 1776964017 | 23.33° C | 84% | 1010.5 hPa | 0 mm | - | - | - |
* Rain latest hour (hover to see other rain measurements)
** Current wind speed in m/s (hover to see current wind gust speed)